TimePST,TemperatureF,Dew PointF,Humidity,Sea Level PressureIn,VisibilityMPH,Wind Direction,Wind SpeedMPH,Gust SpeedMPH,PrecipitationIn,Events,Conditions,WindDirDegrees,DateUTC
12:53 AM,42.1,37.9,85,30.15,10.0,Calm,Calm,-,N/A,,Clear,0,2012-11-14 08:53:00
1:53 AM,42.1,37.9,85,30.15,10.0,Calm,Calm,-,N/A,,Clear,0,2012-11-14 09:53:00
2:53 AM,41.0,37.9,89,30.15,10.0,Calm,Calm,-,N/A,,Clear,0,2012-11-14 10:53:00
3:53 AM,39.9,37.0,89,30.14,10.0,Calm,Calm,-,N/A,,Clear,0,2012-11-14 11:53:00
4:53 AM,39.9,37.9,93,30.13,10.0,Calm,Calm,-,N/A,,Clear,0,2012-11-14 12:53:00
5:53 AM,39.9,37.0,89,30.14,10.0,Calm,Calm,-,N/A,,Clear,0,2012-11-14 13:53:00
6:53 AM,43.0,39.9,89,30.14,10.0,Calm,Calm,-,N/A,,Clear,0,2012-11-14 14:53:00
7:53 AM,46.9,43.0,86,30.14,10.0,Calm,Calm,-,N/A,,Clear,0,2012-11-14 15:53:00
8:53 AM,51.1,44.1,77,30.15,10.0,Calm,Calm,-,N/A,,Clear,0,2012-11-14 16:53:00
9:53 AM,57.9,45.0,62,30.15,10.0,Variable,3.5,-,N/A,,Clear,0,2012-11-14 17:53:00
10:53 AM,64.0,48.0,56,30.14,10.0,NNE,8.1,-,N/A,,Clear,30,2012-11-14 18:53:00
11:53 AM,66.0,48.0,52,30.12,10.0,Variable,5.8,-,N/A,,Clear,0,2012-11-14 19:53:00
12:53 PM,68.0,48.0,49,30.10,10.0,Variable,5.8,-,N/A,,Clear,0,2012-11-14 20:53:00
1:53 PM,70.0,48.0,46,30.08,10.0,Variable,5.8,-,N/A,,Clear,0,2012-11-14 21:53:00
2:53 PM,69.1,48.0,47,30.06,10.0,NE,5.8,-,N/A,,Clear,50,2012-11-14 22:53:00
3:53 PM,69.1,48.0,47,30.05,10.0,NE,3.5,-,N/A,,Clear,50,2012-11-14 23:53:00
4:53 PM,57.0,46.9,69,30.05,10.0,Calm,Calm,-,N/A,,Clear,0,2012-11-15 00:53:00
5:53 PM,52.0,45.0,77,30.05,10.0,Calm,Calm,-,N/A,,Clear,0,2012-11-15 01:53:00
6:53 PM,48.9,45.0,86,30.06,10.0,Calm,Calm,-,N/A,,Clear,0,2012-11-15 02:53:00
7:53 PM,48.0,45.0,89,30.06,10.0,Calm,Calm,-,N/A,,Clear,0,2012-11-15 03:53:00
8:53 PM,46.0,45.0,96,30.06,10.0,Calm,Calm,-,N/A,,Clear,0,2012-11-15 04:53:00
9:53 PM,45.0,43.0,93,30.06,10.0,Calm,Calm,-,N/A,,Clear,0,2012-11-15 05:53:00
10:53 PM,44.1,42.1,93,30.05,10.0,Calm,Calm,-,N/A,,Clear,0,2012-11-15 06:53:00
11:53 PM,44.1,42.1,93,30.04,10.0,Calm,Calm,-,N/A,,Clear,0,2012-11-15 07:53:00